Weather History for Hyannis, MA

Change the Weather History Date:

Sunday, October 7, 2012

  Actual Average Record
Temperature  
Mean Temperature 52 °F -  
Max Temperature 60 °F 65 °F 81 °F (1946)
Min Temperature 48 °F 44 °F 25 °F (1958)
Degree Days  
Heating Degree Days 12    
Growing Degree Days 2 (Base 50)    
Moisture  
Dew Point 46 °F    
Average Humidity 80    
Maximum Humidity 100    
Minimum Humidity 58    
Precipitation  
Precipitation 0.18 in - - ()
Sea Level Pressure  
Sea Level Pressure 30.02 in    
Wind  
Wind Speed 5 mph (NNW)    
Max Wind Speed 9 mph    
Max Gust Speed 17 mph    
Visibility 9 miles    
Events Rain    
Averages and records for this station are not official NWS values.
T = Trace of Precipitation, MM = Missing Value Source: NWS Daily Summary

Daily Weather History Graph

Daily Weather History Graph

Search for Another Location

Airport:

Trip Planner

Search our weather history database for the weather conditions in past years. The results will help you decide how hot, cold, wet, or windy it might be!

Date:

Astronomy

Oct. 07, 2012 Rise Set
Actual Time 6:44 AM EDT 6:12 PM EDT
Civil Twilight 6:17 AM EDT 6:39 PM EDT
Nautical Twilight 5:44 AM EDT 7:11 PM EDT
Astronomical Twilight 5:12 AM EDT 7:44 PM EDT
Moon 11:17 PM EDT (10/7) 1:23 PM EDT (10/7)
Length of Visible Light 12h 22m
Length of Day
11h 27m
Waning Gibbous, 56% of the Moon is Illuminated
Oct 7
Waning Gibbous
Oct 8
Last Quarter
Oct 15
New
Oct 21
First Quarter
Oct 29
Full

Hourly Weather History & Observations

Time (EDT) Temp. Dew Point Humidity Pressure Visibility Wind Dir Wind Speed Gust Speed Precip Events Conditions
12:56 AM 55.0 °F 46.0 °F 72% 29.92 in 10.0 mi NW 6.9 mph 17.3 mph N/A   Clear
1:56 AM 54.0 °F 44.1 °F 69% 29.95 in 10.0 mi NW 9.2 mph - N/A   Clear
2:56 AM 52.0 °F 45.0 °F 77% 29.96 in 10.0 mi NW 4.6 mph - N/A   Clear
3:56 AM 52.0 °F 43.0 °F 71% 29.97 in 10.0 mi WNW 3.5 mph - N/A   Clear
4:56 AM 48.9 °F 42.1 °F 77% 29.98 in 10.0 mi WNW 3.5 mph - N/A   Clear
5:56 AM 48.9 °F 41.0 °F 74% 29.99 in 10.0 mi WNW 4.6 mph - N/A   Clear
6:56 AM 48.0 °F 41.0 °F 77% 30.02 in 10.0 mi WNW 4.6 mph - N/A   Clear
7:56 AM 48.9 °F 41.0 °F 74% 30.04 in 10.0 mi WNW 5.8 mph - N/A   Clear
8:56 AM 53.1 °F 43.0 °F 69% 30.06 in 10.0 mi NNW 4.6 mph - N/A   Clear
9:56 AM 54.0 °F 43.0 °F 66% 30.06 in 10.0 mi NNW 5.8 mph - N/A   Clear
10:56 AM 57.9 °F 43.0 °F 58% 30.04 in 10.0 mi North 9.2 mph - N/A   Clear
11:56 AM 57.9 °F 44.1 °F 60% 30.05 in 10.0 mi NNW 9.2 mph - N/A   Clear
12:56 PM 57.9 °F 44.1 °F 60% 30.04 in 10.0 mi North 5.8 mph - N/A   Clear
1:56 PM 55.9 °F 44.1 °F 64% 30.04 in 10.0 mi North 5.8 mph - N/A   Overcast
2:56 PM 55.9 °F 45.0 °F 67% 30.04 in 10.0 mi Calm Calm - 0.00 in Rain Light Rain
3:56 PM 54.0 °F 48.0 °F 80% 30.04 in 10.0 mi Calm Calm - 0.01 in Rain Light Rain
4:56 PM 52.0 °F 50.0 °F 93% 30.02 in 8.0 mi East 3.5 mph - 0.09 in Rain Light Rain
5:56 PM 51.1 °F 48.9 °F 92% 30.04 in 10.0 mi Variable 3.5 mph - 0.02 in Rain Light Rain
6:56 PM 51.1 °F 48.9 °F 92% 30.04 in 10.0 mi Calm Calm - 0.02 in Rain Light Rain
7:56 PM 51.1 °F 50.0 °F 96% 30.02 in 10.0 mi Calm Calm - 0.00 in   Overcast
8:56 PM 51.1 °F 48.9 °F 92% 29.99 in 10.0 mi East 4.6 mph - N/A   Overcast
9:56 PM 51.1 °F 50.0 °F 96% 30.01 in 10.0 mi North 3.5 mph - N/A   Overcast
10:40 PM 50.0 °F 48.2 °F 94% 30.01 in 6.0 mi NNW 3.5 mph - 0.01 in Rain Light Rain
10:56 PM 50.0 °F 48.0 °F 93% 30.02 in 5.0 mi NW 4.6 mph - 0.01 in Rain Light Rain
11:28 PM 48.2 °F 48.2 °F 100% 30.03 in 5.0 mi NNW 5.8 mph - 0.02 in Rain Light Rain
11:46 PM 48.2 °F 48.2 °F 100% 30.03 in 4.0 mi NW 3.5 mph - 0.03 in Rain Light Rain
11:56 PM 48.9 °F 48.0 °F 97% 30.04 in 5.0 mi NW 3.5 mph - 0.03 in Rain Light Rain